SCP
0 0 0 0 0 0 0 -0 -0 0 0 0 0 0 0 0 0 0 0 0 0 0
0 0 0 0 0 0 0 0 0 0 0 0 0 0 0 0 0 0 0 0 0 0
0 0 0 0 0 0 0 0 0 0 0 0 0 0 0 0 0 0 0 0 0 0
0 0 0 0 0 0 0 0 0 0 0 0 0 -0 0 0 0 0 0 0 0 0
0 0 0 0 0 0 0 0 0 0 0 0 0 0 0 0 0 0 0 0 0 0
0 0 0 0 0 0 0 0 0 0 0 0 0 0 0 0 0 0 0 0 0 0
0 0 0 0 0 0 0 0 0 0 0 0 0 0 0 0 0 0 0 0 0 0
0 0 -0 0 -0 -0 -0 0 0 0 0 0 0 0 0 0 0 0 0 0 0 0
0 -0 0 0 -0 0 0 0 0 -0 0 0 0 0 0 0 0 0 0 0 0 0
0 -0 0 0 0 0 0 0 0 0 0 0 0 0 0 -0 0 0 0 0 -0 0
0 0 0 0 0 0 0 0 0 0 0 0 0 0 0 0 0 0 0 0 0 0
0 0 0 0 0 0 0 0 0 0 0 0 0 -0 0 0 0 0 -0 -0 -0 0
0 0 0 0 0 0 0 0 0 0 0 0 0 0 0 0 0 0 0 0 0 0
0 -0 0 0 0 0 0 0 0 0 0 0 0 0 0 0 0 0 0 0 0 -0
Wind_Speed_500mb
13 10 17 15 15 7 9 18 29 33 34 26 26 26 23 30 29 33 34 38 43 50
15 10 13 13 19 15 17 22 22 27 26 29 27 29 32 33 37 36 44 46 45 55
7 12 16 14 16 15 22 16 19 23 25 32 38 39 37 34 41 44 46 48 49 52
7 7 14 18 16 17 20 19 26 26 33 37 38 41 41 43 43 43 45 43 39 43
11 4 13 15 18 11 11 21 27 27 39 40 45 43 41 48 45 45 40 35 40 46
13 9 17 22 22 20 19 27 32 32 36 40 42 38 36 42 38 33 30 25 40 53
12 18 24 28 25 31 31 31 35 34 33 35 30 29 29 34 32 23 32 36 49 52
23 30 25 20 34 36 36 36 35 33 35 34 24 25 33 37 40 36 38 44 42 45
34 24 28 21 28 23 32 40 29 26 29 33 34 32 35 39 38 44 41 37 42 45
41 33 32 33 27 23 22 26 22 20 31 38 37 37 40 50 43 40 39 47 48 47
42 36 33 36 33 27 25 21 14 30 31 35 37 37 38 36 32 37 37 37 38 43
41 37 37 36 37 36 27 18 19 31 36 40 47 37 34 34 34 37 35 29 28 33
36 41 39 37 30 26 37 28 21 24 30 37 44 41 39 39 45 38 35 33 25 36
38 43 34 39 33 22 33 40 30 23 24 36 43 42 38 39 35 41 36 33 31 36
Wind_Direction_500mb
15 42 41 42 44 40 99 136 155 168 171 174 161 170 161 156 163 157 163 159 154 163
19 56 43 38 35 69 99 136 146 160 170 172 173 158 160 162 164 162 155 155 156 150
48 49 35 37 32 91 100 110 143 154 151 152 152 154 157 155 153 142 144 148 149 153
104 57 35 55 68 104 104 90 131 135 146 147 147 153 155 149 147 150 147 145 153 152
145 115 86 80 72 90 126 115 130 135 144 145 144 151 158 158 149 139 137 151 156 157
162 118 104 90 74 75 130 138 133 137 143 146 147 150 161 171 169 162 151 144 160 161
155 124 106 101 89 82 107 133 130 126 136 136 141 146 161 168 168 162 152 146 149 150
139 125 119 124 98 97 98 118 120 125 143 148 151 161 169 159 152 140 138 133 140 145
155 149 135 124 124 113 107 118 122 118 135 139 135 129 143 147 150 154 153 148 146 141
156 160 148 140 137 155 142 120 118 134 128 129 136 140 134 141 140 134 138 147 141 142
162 170 169 163 156 150 152 147 129 148 148 135 131 138 143 147 136 136 139 146 147 149
176 182 174 176 177 171 145 150 139 153 150 149 141 139 135 145 147 145 143 145 152 157
181 186 179 192 190 185 188 167 168 159 165 160 153 155 154 154 151 155 159 168 171 182
187 194 186 193 200 199 183 176 173 182 178 182 175 168 169 172 176 178 175 185 186 180
Wind_Speed_850mb
13 10 17 15 15 7 9 18 29 33 34 26 26 26 23 30 29 33 34 38 43 50
15 10 13 13 19 15 17 22 22 27 26 29 27 29 32 33 37 36 44 46 45 55
7 12 16 14 16 15 22 16 19 23 25 32 38 39 37 34 41 44 46 48 49 52
7 7 14 18 16 17 20 19 26 26 33 37 38 41 41 43 43 43 45 43 39 43
11 4 13 15 18 11 11 21 27 27 39 40 45 43 41 48 45 45 40 35 40 46
13 9 17 22 22 20 19 27 32 32 36 40 42 38 36 42 38 33 30 25 40 53
12 18 24 28 25 31 31 31 35 34 33 35 30 29 29 34 32 23 32 36 49 52
23 30 25 20 34 36 36 36 35 33 35 34 24 25 33 37 40 36 38 44 42 45
34 24 28 21 28 23 32 40 29 26 29 33 34 32 35 39 38 44 41 37 42 45
41 33 32 33 27 23 22 26 22 20 31 38 37 37 40 50 43 40 39 47 48 47
42 36 33 36 33 27 25 21 14 30 31 35 37 37 38 36 32 37 37 37 38 43
41 37 37 36 37 36 27 18 19 31 36 40 47 37 34 34 34 37 35 29 28 33
36 41 39 37 30 26 37 28 21 24 30 37 44 41 39 39 45 38 35 33 25 36
38 43 34 39 33 22 33 40 30 23 24 36 43 42 38 39 35 41 36 33 31 36
Wind_Direction_850mb
15 42 41 42 44 40 99 136 155 168 171 174 161 170 161 156 163 157 163 159 154 163
19 56 43 38 35 69 99 136 146 160 170 172 173 158 160 162 164 162 155 155 156 150
48 49 35 37 32 91 100 110 143 154 151 152 152 154 157 155 153 142 144 148 149 153
104 57 35 55 68 104 104 90 131 135 146 147 147 153 155 149 147 150 147 145 153 152
145 115 86 80 72 90 126 115 130 135 144 145 144 151 158 158 149 139 137 151 156 157
162 118 104 90 74 75 130 138 133 137 143 146 147 150 161 171 169 162 151 144 160 161
155 124 106 101 89 82 107 133 130 126 136 136 141 146 161 168 168 162 152 146 149 150
139 125 119 124 98 97 98 118 120 125 143 148 151 161 169 159 152 140 138 133 140 145
155 149 135 124 124 113 107 118 122 118 135 139 135 129 143 147 150 154 153 148 146 141
156 160 148 140 137 155 142 120 118 134 128 129 136 140 134 141 140 134 138 147 141 142
162 170 169 163 156 150 152 147 129 148 148 135 131 138 143 147 136 136 139 146 147 149
176 182 174 176 177 171 145 150 139 153 150 149 141 139 135 145 147 145 143 145 152 157
181 186 179 192 190 185 188 167 168 159 165 160 153 155 154 154 151 155 159 168 171 182
187 194 186 193 200 199 183 176 173 182 178 182 175 168 169 172 176 178 175 185 186 180